STARLINK-32317

Last updated on Tue Oct 01 2024 00:02:04 GMT+0000 (Coordinated Universal Time)

1 60918U 24154R 24274.58334491 -.00128765 00000+0 -32585-2 0 9991 2 60918 53.1598 203.8198 0000856 67.1529 15.0923 15.39669388 6001
UTC large
Height (km)
Speed (km/s)
/
Latitude / Longitude
Inclination (degrees)
Orbital Period (minutes)
Azimuth
Elevation
Range (km)
Doppler Factor

Next 0 passes for location: London (51.5072 / 0.1276)

Sorry there are no passes over London.